Date String (YYYY-MM-DD hh:mm:ss) UTC,Instrument flags,Ambient pressure (hPa),Sample flow (lpm),Bypass flow (lpm),Sample temperature (°C),Ambient temperature (°C),ASC tube jacket temperature (°C),LED temperature (°C),Box temperature (°C),Sample RH (%),Span deviation,Mass concentration (μg/m³),Mass concentration (μg/m³),Mass concentration (μg/m³)
DateTimeUTC,F1_M11,P_M11,Q1_M11,Q2_M11,T1_M11,T2_M11,T3_M11,T4_M11,T5_M11,U1_M11,ZSPAN_M11,X0_M11,X2_M11,X1_M11
2022-12-21 12:00:00,,0820.3,5.00,0.00,21.9,21.7,00.0,30.6,23.8,10.0,0000.0,0002.17,0001.21,0000.82
2022-12-21 12:01:00,,0820.3,5.00,0.00,21.9,21.3,00.0,30.7,23.6,10.0,0000.0,0002.12,0001.20,0000.81
2022-12-21 12:02:00,,0820.3,5.02,0.00,21.9,21.0,00.0,30.7,23.5,10.0,0000.0,0002.14,0001.20,0000.79
2022-12-21 12:03:00,,0820.2,4.98,0.00,21.8,20.7,00.0,30.7,23.4,10.0,0000.0,0002.17,0001.17,0000.78
2022-12-21 12:04:00,,0820.0,4.98,0.00,21.8,20.5,00.0,30.7,23.4,10.0,0000.0,0002.06,0001.13,0000.77
2022-12-21 12:05:00,,0820.0,5.03,0.00,21.7,20.2,00.0,30.6,23.3,10.0,0000.0,0002.01,0001.10,0000.75
2022-12-21 12:06:00,,0820.1,5.03,0.00,21.7,20.1,00.0,30.6,23.2,10.0,0000.0,0002.09,0001.09,0000.73
2022-12-21 12:07:00,,0820.2,4.95,0.00,21.7,20.7,00.0,30.6,23.4,10.0,0000.0,0002.30,0001.09,0000.72
2022-12-21 12:08:00,,0820.1,5.04,0.00,21.8,21.8,00.0,30.6,23.7,10.0,0000.0,0002.34,0001.12,0000.73
2022-12-21 12:09:00,,0820.2,4.97,0.00,21.9,22.1,00.0,30.6,23.8,09.9,0000.0,0002.17,0001.08,0000.74
2022-12-21 12:10:00,,0820.2,5.05,0.00,21.9,21.5,00.0,30.7,23.7,09.9,0000.0,0002.15,0001.08,0000.75
2022-12-21 12:11:00,,0820.2,4.95,0.00,21.9,21.0,00.0,30.7,23.6,09.9,0000.0,0002.45,0001.09,0000.76
2022-12-21 12:12:00,,0820.2,5.03,0.00,21.9,20.7,00.0,30.7,23.5,09.9,0000.0,0002.75,0001.12,0000.76
2022-12-21 12:13:00,,0820.2,5.02,0.00,21.8,20.5,00.0,30.7,23.4,09.9,0000.0,0003.47,0001.12,0000.77
2022-12-21 12:14:00,,0820.2,4.96,0.00,21.8,20.4,00.0,30.7,23.4,09.9,0000.0,0003.61,0001.10,0000.77
2022-12-21 12:15:00,,0820.2,5.03,0.00,21.8,20.3,00.0,30.7,23.3,09.9,0000.0,0003.63,0001.10,0000.77
2022-12-21 12:16:00,,0820.2,5.01,0.00,21.7,20.2,00.0,30.7,23.3,10.0,0000.0,0003.89,0001.16,0000.78
2022-12-21 12:17:00,,0820.2,5.02,0.00,21.7,20.1,00.0,30.6,23.2,10.1,0000.0,0003.98,0001.19,0000.79
2022-12-21 12:18:00,,0820.2,4.97,0.00,21.7,20.5,00.0,30.6,23.3,10.0,0000.0,0003.79,0001.17,0000.79
2022-12-21 12:19:00,,0820.2,5.03,0.00,21.8,21.6,00.0,30.6,23.6,09.9,0000.0,0004.93,0001.17,0000.78
2022-12-21 12:20:00,,0820.2,4.97,0.00,21.9,22.1,00.0,30.6,23.8,09.9,0000.0,0005.68,0001.20,0000.78
2022-12-21 12:21:00,,0820.2,5.03,0.00,21.9,21.7,00.0,30.7,23.8,09.9,0000.0,0005.75,0001.22,0000.77
2022-12-21 12:22:00,,0820.2,4.97,0.00,21.9,21.2,00.0,30.7,23.6,09.8,0000.0,0005.39,0001.20,0000.77
2022-12-21 12:23:00,,0820.1,5.04,0.00,21.8,20.7,00.0,30.7,23.5,09.9,0000.0,0005.09,0001.16,0000.77
2022-12-21 12:24:00,,0820.1,4.96,0.00,21.8,20.3,00.0,30.7,23.4,10.0,0000.0,0004.29,0001.15,0000.77
2022-12-21 12:25:00,,0820.1,5.01,0.00,21.7,20.2,00.0,30.7,23.4,10.0,0000.0,0004.10,0001.20,0000.77
2022-12-21 12:26:00,,0819.9,5.02,0.00,21.7,20.1,00.0,30.7,23.3,10.0,0000.0,0004.32,0001.22,0000.78
2022-12-21 12:27:00,,0819.9,5.02,0.00,21.7,20.1,00.0,30.6,23.2,09.9,0000.0,0004.55,0001.20,0000.78
2022-12-21 12:28:00,,0819.9,4.94,0.00,21.6,20.0,00.0,30.6,23.2,10.0,0000.0,0004.46,0001.23,0000.80
2022-12-21 12:29:00,,0819.9,5.02,0.00,21.6,20.0,00.0,30.6,23.2,10.0,0000.0,0004.55,0001.25,0000.81
2022-12-21 12:30:00,,0819.9,5.04,0.00,21.6,20.7,00.0,30.6,23.3,10.0,0000.0,0003.64,0001.26,0000.83
2022-12-21 12:31:00,,0819.9,4.97,0.00,21.7,21.8,00.0,30.5,23.6,09.9,0000.0,0002.83,0001.28,0000.85
2022-12-21 12:32:00,,0819.8,5.03,0.00,21.8,21.9,00.0,30.6,23.7,09.8,0000.0,0003.07,0001.35,0000.86
2022-12-21 12:33:00,,0819.7,4.96,0.00,21.8,21.4,00.0,30.6,23.6,09.7,0000.0,0003.23,0001.41,0000.86
2022-12-21 12:34:00,,0819.6,5.04,0.00,21.8,21.0,00.0,30.7,23.5,09.7,0000.0,0003.31,0001.44,0000.87
2022-12-21 12:35:00,,0819.5,5.00,0.00,21.8,20.7,00.0,30.7,23.4,09.8,0000.0,0003.69,0001.53,0000.88
2022-12-21 12:36:00,,0819.5,4.99,0.00,21.8,20.5,00.0,30.7,23.4,09.8,0000.0,0003.74,0001.50,0000.89
2022-12-21 12:37:00,,0819.4,5.02,0.00,21.7,20.4,00.0,30.7,23.3,09.9,0000.0,0003.77,0001.49,0000.89
2022-12-21 12:38:00,,0819.3,5.00,0.00,21.7,20.2,00.0,30.6,23.3,09.8,0000.0,0003.55,0001.52,0000.90
2022-12-21 12:39:00,,0819.3,4.96,0.00,21.7,20.2,00.0,30.6,23.2,09.8,0000.0,0003.84,0001.49,0000.90
2022-12-21 12:40:00,,0819.2,5.02,0.00,21.6,20.1,00.0,30.6,23.2,09.9,0000.0,0004.31,0001.49,0000.89
2022-12-21 12:41:00,,0819.3,5.02,0.00,21.6,20.0,00.0,30.6,23.1,09.9,0000.0,0005.33,0001.49,0000.89
2022-12-21 12:42:00,,0819.3,4.95,0.00,21.6,20.4,00.0,30.5,23.2,09.9,0000.0,0005.39,0001.47,0000.88
2022-12-21 12:43:00,,0819.3,5.05,0.00,21.7,21.5,00.0,30.5,23.5,09.9,0000.0,0005.08,0001.38,0000.87
2022-12-21 12:44:00,,0819.3,4.97,0.00,21.8,22.1,00.0,30.5,23.7,09.8,0000.0,0004.95,0001.33,0000.87
2022-12-21 12:45:00,,0819.2,5.05,0.00,21.8,21.6,00.0,30.6,23.6,09.8,0000.0,0004.88,0001.31,0000.87
2022-12-21 12:46:00,,0819.3,4.95,0.00,21.8,21.1,00.0,30.6,23.5,09.8,0000.0,0004.47,0001.21,0000.87
2022-12-21 12:47:00,,0819.3,5.03,0.00,21.8,20.8,00.0,30.6,23.4,09.9,0000.0,0004.38,0001.22,0000.87
2022-12-21 12:48:00,,0819.3,5.02,0.00,21.7,20.5,00.0,30.6,23.3,09.9,0000.0,0004.22,0001.23,0000.87
2022-12-21 12:49:00,,0819.4,4.95,0.00,21.7,20.3,00.0,30.6,23.2,09.9,0000.0,0004.08,0001.20,0000.87
2022-12-21 12:50:00,,0819.4,5.02,0.00,21.6,20.1,00.0,30.6,23.2,09.9,0000.0,0003.76,0001.21,0000.86
2022-12-21 12:51:00,,0819.4,5.02,0.00,21.6,20.1,00.0,30.6,23.1,09.9,0000.0,0003.27,0001.18,0000.86
2022-12-21 12:52:00,,0819.5,4.97,0.00,21.6,20.0,00.0,30.5,23.1,10.0,0000.0,0002.28,0001.17,0000.85
2022-12-21 12:53:00,,0819.4,5.01,0.00,21.6,20.8,00.0,30.5,23.3,10.0,0000.0,0002.40,0001.17,0000.85
2022-12-21 12:54:00,,0819.4,5.00,0.00,21.7,21.9,00.0,30.5,23.6,09.9,0000.0,0003.13,0001.20,0000.85
2022-12-21 12:55:00,,0819.5,5.00,0.00,21.8,21.9,00.0,30.6,23.7,09.8,0000.0,0003.28,0001.25,0000.85
2022-12-21 12:56:00,,0819.6,4.98,0.00,21.8,21.4,00.0,30.6,23.6,09.8,0000.0,0003.40,0001.29,0000.85
2022-12-21 12:57:00,,0819.6,5.02,0.00,21.8,20.9,00.0,30.6,23.5,09.8,0000.0,0003.40,0001.30,0000.84
2022-12-21 12:58:00,,0819.6,5.04,0.00,21.7,20.6,00.0,30.6,23.4,09.8,0000.0,0003.38,0001.31,0000.84
2022-12-21 12:59:00,,0819.7,4.94,0.00,21.7,20.4,00.0,30.6,23.3,09.8,0000.0,0003.39,0001.32,0000.84
